Home > Weather > Lancaster > Past weeks

Flag for U.S.A. Weather for the Past 2 Weeks in Lancaster, California, U.S.A.

Now
71 °F

Sunny.


Feels Like: 73 °F
Forecast: 39 / 70 °F
Wind: 15 mph from East

Location: Lancaster / Fox Field

Current Time: Feb 7, 2016 at 4:14:00 PM

Latest Report: Feb 7, 2016 at 2:56 PM


Visibility: 10 mi

Pressure: 30.28 "Hg (27.87 "Hg at 718m altitude)

Humidity: 14%

Dew point: 20 °F

Location of LancasterLocation

Historic Weather in Lancaster — Graph

°F

Lancaster Temperature Yesterday

Maximum temperature yesterday: 63 °F (at 1:56 PM)
Minimum temperature yesterday: 26 °F (at 6:56 AM)
Average temperature yesterday: 43 °F

High & Low Weather Summary for the Past Weeks

 TemperatureHumidityPressure
High75 °F (Jan 29, 1:56 PM)88% (Feb 3, 3:56 AM)30.54 "Hg (Feb 3, 3:56 AM)
Low24 °F (Feb 4, 6:56 AM)12% (Jan 28, 11:56 PM)29.49 "Hg (Jan 31, 12:56 PM)
Average45 °F57%30.22 "Hg
* Reported Jan 23 1:56 PM — Feb 7 1:56 PM, Lancaster, Weather by CustomWeather, © 2016

Note: Actual official high and low records may vary slightly from our data, if they occured in-between our weather recording intervals... More about our weather records

Advertising

Lancaster Weather History for the Previous 24 Hours

 ConditionsComfort  
Time TempWeatherWind HumidityBarometerVisibility
1:56 PM
Sun, Feb 7
69 °FSunny.20 mph15%30.29 "Hg10 mi
12:56 PM67 °FSunny.13 mph18%30.32 "Hg10 mi
11:56 AM63 °FSunny.12 mph25%30.36 "Hg10 mi
10:56 AM57 °FSunny.12 mph32%30.39 "Hg10 mi
9:56 AM51 °FSunny.3 mph39%30.42 "Hg10 mi
8:56 AM43 °FSunny.No wind58%30.42 "Hg10 mi
7:56 AM34 °FSunny.No wind76%30.42 "Hg10 mi
6:56 AM29 °FSunny.No wind79%30.40 "Hg10 mi
5:56 AM30 °FClear.No wind75%30.38 "Hg10 mi
4:56 AM31 °FClear.3 mph76%30.36 "Hg10 mi
3:56 AM31 °FClear.7 mph76%30.35 "Hg10 mi
2:56 AM32 °FClear.No wind75%30.36 "Hg10 mi
1:56 AM32 °FClear.3 mph75%30.37 "Hg10 mi
12:56 AM33 °FClear.5 mph75%30.37 "Hg10 mi
11:56 PM
Sat, Feb 6
37 °FClear.No wind67%30.37 "Hg10 mi
10:56 PM36 °FClear.5 mph67%30.38 "Hg10 mi
9:56 PM39 °FClear.5 mph62%30.37 "Hg10 mi
8:56 PM42 °FClear.No wind55%30.37 "Hg10 mi
7:56 PM43 °FClear.5 mph53%30.37 "Hg10 mi
6:56 PM49 °FClear.5 mph43%30.35 "Hg10 mi
5:56 PM50 °FClear.9 mph43%30.35 "Hg10 mi
4:56 PM61 °FSunny.9 mph23%30.32 "Hg10 mi
Weather by CustomWeather, © 2016

See weather overviewHow to use our weather pages